Weather observations for the past three days for
Mount Pocono, Pocono Mountains Municipal Airport
Imperial (Metric)
Date Time (edt) Wind (mph) Vis. (mi.) Weather Sky Cond. Temperature (ºF) Relative Humidity Wind Chill (°F) Heat Index (°F) Pressure Precipitation (in)
Air Dwpt 6 hour altimeter (in) sea level (mb) 1 hr 3 hr 6 hr
Max. Min.
25 14:53 SW 15 G 23 10.00 Fair CLR 79 46.9 32% 79 29.98 1014.2
25 13:53 Calm 10.00 Fair CLR 75.9 46.9 79 63 36% 78 29.97 1014.0
25 12:53 SW 10 G 20 10.00 Fair CLR 77 48.9 37% 78 29.99 1014.4
25 11:53 SW 14 G 22 10.00 Fair CLR 77 48 36% 78 30 1014.9
25 10:53 W 9 10.00 Fair CLR 75 51.1 43% 78 30.01 1015.2
25 09:53 W 9 10.00 Fair CLR 73 53.1 50% 30.02 1015.3
25 08:53 NW 8 10.00 Fair CLR 69.1 54 59% 30 1015.0
25 07:53 W 9 10.00 Fair CLR 63 53.1 63 53.1 70% 30.01 1015.3
25 06:53 W 6 10.00 Fair CLR 57 51.1 81% 29.99 1015.0
25 05:53 W 7 10.00 Fair CLR 53.1 48 83% 30 1015.5
25 04:53 W 7 10.00 Fair CLR 55 48 77% 30 1015.3
25 03:53 W 7 10.00 Fair CLR 55.9 48 75% 29.97 1014.5
25 02:53 W 8 10.00 Fair CLR 57 48 72% 29.95 1013.8
25 01:53 W 9 10.00 Fair CLR 57 48 69.1 57 72% 29.94 1013.4
25 00:53 NW 7 10.00 Fair CLR 57.9 48.9 72% 29.93 1013.0
24 23:53 NW 7 10.00 Fair CLR 61 48.9 65% 29.94 1013.0
24 22:53 NW 8 10.00 Fair CLR 62.1 48.9 62% 29.92 1012.3
24 21:53 NW 12 10.00 Fair CLR 64.9 48.9 56% 29.9 1011.9
24 20:53 NW 14 10.00 Fair CLR 66.9 48 51% 29.87 1010.5
24 19:53 NW 21 G 32 10.00 Mostly Cloudy and Breezy BKN075 69.1 48 69.1 64 47% 29.84 1009.4
24 18:53 W 16 G 24 10.00 Overcast OVC090 68 48 49% 29.84 1009.4
24 17:53 NW 20 G 36 10.00 Overcast OVC065 68 48.9 51% 29.83 1009.2
24 16:53 NW 21 G 37 10.00 Overcast and Breezy OVC050 66 48 52% 29.81 1008.7
24 15:53 NW 21 G 44 10.00 Mostly Cloudy and Breezy BKN049 66.9 48 51% 29.79 1007.9
24 14:53 NW 23 G 44 10.00 Mostly Cloudy and Breezy BKN042 BKN050 66 48 52% 29.77 1007.1
24 13:53 NW 22 G 35 10.00 Overcast and Breezy OVC039 64 48.9 66.9 63 58% 29.77 1007.1
24 12:53 NW 23 G 39 10.00 Overcast and Breezy BKN033 OVC042 63 50 63% 29.76 1006.6
24 11:53 W 23 G 36 10.00 Overcast and Breezy OVC034 64 51.1 63% 29.74 1006.1
24 10:53 NW 32 G 43 10.00 Mostly Cloudy and Windy BKN036 66.9 53.1 61% 29.72 1005.3
24 09:53 W 18 G 36 10.00 Overcast SCT025 OVC034 63 54 73% 29.71 1005.0
24 08:53 W 24 G 36 10.00 Mostly Cloudy and Breezy BKN034 64.9 53.1 66% 29.71 1004.9
24 07:53 W 16 G 35 10.00 A Few Clouds FEW024 64 54 68 63 70% 29.7 1004.5
24 06:53 W 12 10.00 Partly Cloudy FEW016 SCT025 SCT034 63 57.9 84% 29.69 1004.2
24 05:53 W 15 G 23 10.00 A Few Clouds FEW012 FEW036 63 60.1 90% 29.68 1003.5
24 04:53 W 21 G 28 10.00 Mostly Cloudy and Breezy SCT014 SCT021 BKN039 64.9 61 87% 29.67 1003.2
24 03:53 W 10 10.00 Partly Cloudy SCT014 SCT020 66 63 90% 29.66 1002.9
24 02:53 W 12 10.00 Partly Cloudy FEW007 SCT080 66.9 64 91% 29.66 1002.8
24 01:53 W 9 10.00 Overcast BKN007 OVC044 68 64.9 78.1 68 90% 29.66 1002.9
24 00:53 W 14 10.00 Mostly Cloudy BKN013 BKN019 70 66 87% 29.67 1003.0
23 23:53 SW 9 G 25 10.00 Mostly Cloudy BKN017 72 66 82% 29.67 1003.0
23 22:53 W 15 G 24 10.00 Mostly Cloudy BKN033 73 64.9 76% 29.65 1002.4
23 21:53 W 9 10.00 Mostly Cloudy FEW036 SCT048 BKN060 75 64.9 71% 77 29.65 1002.5
23 20:53 SW 12 G 17 10.00 Fair CLR 75 64 69% 77 29.66 1002.8
23 19:53 SW 13 G 23 10.00 Mostly Cloudy BKN043 BKN070 78.1 64 82 78.1 62% 80 29.68 1003.4
23 18:53 SW 16 G 26 10.00 Partly Cloudy SCT065 SCT080 79 64 60% 81 29.68 1003.4
23 17:53 SW 14 G 25 10.00 A Few Clouds FEW044 FEW065 80.1 66.9 64% 82 29.68 1003.3
23 16:53 Calm 10.00 A Few Clouds FEW043 81 66.9 62% 83 29.69 1003.7
23 15:53 SW 18 G 29 10.00 Fair CLR 82 66 58% 84 29.72 1004.7
23 14:53 SW 13 G 22 10.00 Mostly Cloudy SCT040 BKN049 BKN060 81 66.9 62% 83 29.74 1005.4
23 13:53 SW 13 10.00 Mostly Cloudy SCT035 SCT043 BKN050 81 69.1 84 73 67% 84 29.75 1005.7
23 12:53 S 12 G 21 10.00 Mostly Cloudy SCT038 BKN100 81 69.1 67% 84 29.77 1006.6
23 11:53 S 8 10.00 Fair CLR 80.1 70 71% 83 29.8 1007.6
23 10:53 SW 10 G 20 10.00 Fair CLR 79 68 69% 81 29.82 1008.1
23 09:53 SW 9 10.00 Mostly Cloudy BKN090 78.1 68 71% 80 29.83 1008.4
23 08:53 SW 6 10.00 Overcast OVC100 75 68 79% 76 29.85 1009.3
23 07:53 SW 7 10.00 Overcast OVC100 73 68 73 69.1 84% 29.86 1009.6
23 06:53 SW 6 0.50 Fog OVC095 70 66.9 90% 29.87 1009.8
23 05:53 S 6 9.00 Overcast BKN080 OVC100 70 68 93% 29.88 1010.1
23 04:53 SE 3 7.00 Overcast OVC085 69.1 68 96% 29.89 1010.6
23 03:53 SE 5 6.00 Fog/Mist OVC090 69.1 68 96% 29.9 1011.0
23 02:53 SE 3 7.00 A Few Clouds FEW055 70 68 93% 29.94 1012.0
23 01:53 Calm 2.50 Thunderstorm in Vicinity Fog/Mist SCT049 BKN065 BKN100 69.1 68 75.9 68 96% 29.96 1012.8 0.01 0.24
23 00:53 SE 8 9.00 Thunderstorm Light Rain FEW032 SCT090 BKN120 71.1 66.9 87% 29.97 1013.0 0.1
22 23:53 Calm 9.00 Partly Cloudy SCT060 71.1 69.1 94% 29.99 1013.8
22 22:53 Calm 4.00 Fog/Mist FEW110 70 68 93% 29.99 1014.1 0.06 0.13
22 21:53 S 8 5.00 Thunderstorm Rain FEW023 SCT050 BKN085 73.9 66.9 79% 30.02 1015.1 0.07
22 20:53 E 8 10.00 Fair CLR 75.9 68 77% 77 29.99 1014.1
22 19:53 Calm 10.00 Fair CLR 75.9 68 88 75.9 77% 77 29.99 1014.3
22 18:53 W 3 10.00 Fair CLR 82 66 58% 84 30 1014.3
22 17:53 NW 9 10.00 Fair CLR 84 64 51% 85 29.99 1014.0
22 16:53 NW 9 10.00 Light Rain FEW037 SCT100 78.1 66.9 69% 80 30.01 1014.7
22 15:53 NW 13 10.00 Fair CLR 84.9 64.9 51% 87 30.03 1015.4
Date Time (edt) Wind (mph) Vis. (mi.) Weather Sky Cond. Air Dwpt Max. Min. Relative Humidity Wind Chill (°F) Heat Index (°F) altimeter (in) sea level (mb) 1 hr 3 hr 6 hr
6 hour
Temperature (ºF) Pressure Precipitation (in)